Starlink 4049

operational
NORAD ID: 52840 Int'l Des: 2022-062 Owner: SPXS Country: US Constellation: starlink
LEOCIRCULAR

About Starlink 4049

Description loading...

Live Position

Loading 3D Globe...

Upcoming Passes

Altitude History

Altitude vs Time

uPlot chart will show altitude changes over time

Two-Line Element Set

1 52840U 22062L 25258.28385291 .00000363 00000-0 40875-4 0 9991
2 52840 53.2171 101.6649 0001348 90.0870 270.0277 15.08838351179304
Epoch: Sep 15, 2025 • Age: 15 hours

Current Status

Altitude 544.4 km
Velocity 7.60 km/s
Sub-Earth Point 48.74°N, 159.61°W
Launch Date Jun 17, 2022
Age 3.2 years
Type internet

Technical Details

Classification Payload
Mass 297.00 kg
Dry Mass 275.00 kg
Total Mass 297.00 kg
Length 0.20 m
Diameter 2.80 m
Span 9.00 m
Shape Box + pan
Manufacturer SPXS
Bus Type Starlink
Phase Status In Orbit
Owner/State SPXS/US

Large Constellations

Loading constellations...